Location: Ambrosina
(19.9365°S, 43.9833°W)
Time: 01:52:00
(UTC+00:00)

deb Chang Zheng 4 - Pass Details

Date: 11 May 2021
Orbit: 597 x 622 km, 98.6° (Epoch: 20 June)

Event Time Altitude Azimuth Distance (km) Brightness Sun altitude
Rises 20:48:50 0° 175° (S) 2,912 6.8 -5.3°
Reaches altitude 10° 20:51:03 10° 179° (S) 2,003 6.0 -5.8°
Maximum altitude 20:55:19 55° 256° (WSW) 752 4.4 -6.8°
Drops below altitude 10° 20:59:33 10° 333° (NNW) 1,987 6.8 -7.7°
Sets 21:01:45 0° 338° (NNW) 2,886 7.6 -8.2°
